Find OneWeb SL0113

NORAD ID: 48050 Int'l Des: 2021-025 Owner: ONEWEBN Country: UK Constellation: oneweb operational
又名: ONEWEB-0113 spacetrack, celestrak
LEOCIRCULARPOLARONEWEB_TYPE

当前视图

正在加载3D地球...

About OneWeb SL0113

OneWeb SL0113 (NORAD 48050) is a oneweb constellation satellite launched Mar 25, 2021 by ONEWEBN of UK. It operates in LEO, CIRCULAR, POLAR, ONEWEB_TYPE orbit with a mass of 148.00 kg.

即将过境

Passes for default location (London). Set your location on the main map for personalized predictions.

高度历史

Loading altitude history...

两行轨道根数

1 48050U 21025J 26265.87244785 .00000141 00000-0 34906-3 0 9994
2 48050 87.8909 300.6844 0001959 99.0323 261.1028 13.13891566266439
Epoch: Sep 22, 2026 • Age: 19 hours

当前状态

高度 1214.4 km
远地点 / 近地点 N/A
速度 7.25 km/s
星下点 46.64°N, 68.49°E
发射日期 Mar 25, 2021
运行时间 5.4 years
类型 internet

技术详情

分类 Payload
质量 148.00 kg
干质量 140.00 kg
长度 1.30 m
直径 1.00 m
跨度 5.00 m
形状 ? Trapezoid+2 pan
制造商 ONEWUS
平台类型 ARROW
阶段状态 In Orbit
所有者/国家 ONEWEBN/UK

Most Searched